FENGYUN1
1 25730U 99025A   06054.87031322 -.00000190  00000-0 -81093-4 0  6582
2 25730 098.6207 051.7331 0015182 101.7986 258.4888 14.11806875350024
OKEAN-0
1 25860U 99039A   06054.65939345  .00000052  00000-0  15246-4 0  6761
2 25860 097.7424 074.2472 0001706 089.1786 270.9615 14.73338976355032
NOAA-16
1 26536U 00055A   06054.22828252  .00000305  00000-0  19041-3 0  7677
2 26536 099.0515 019.5900 0011291 080.3264 279.9175 14.12318975279496
NOAA-17
1 27453U 02032A   06054.25392775  .00000031  00000-0  32321-4 0  7901
2 27453 098.6319 128.6344 0012317 049.9978 310.2297 14.23752502190563
NOAA-18
1 28654U 05018A   06054.24879203  .00000394  00000-0  24355-3 0  3755
2 28654 098.7759 000.0327 0014113 181.0791 179.0356 14.10934629 39317
HUBBLE
1 20580U 90037B   06054.38681881  .00000497  00000-0  26052-4 0  5526
2 20580 028.4678 071.6983 0003595 059.0825 301.0115 14.99969513667991
UARS
1 21701U 91063B   06054.48445684  .00005132  00000-0  10492-3 0  6951
2 21701 056.9782 222.0161 0106080 354.7372 005.2555 15.42228820791755
PO-34
1 25520U 98064B   06053.39135480  .00000700  00000-0  25095-4 0 04119
2 25520 028.4581 079.0698 0005700 072.3568 287.7655 15.16617622404607
ISS
1 25544U 98067A   06054.78765046  .00034261  00000-0  24046-3 0  4099
2 25544 051.6427 050.7444 0008445 290.5654 065.8467 15.73798580415282
OO-38
1 26063U 00004C   06054.77240059 -.00000024  00000-0  11746-4 0  5525
2 26063 100.1890 325.4086 0037308 066.7852 293.7249 14.35754476318397
NO-45
1 26932U 01043D   06054.18315330  .00000178  00000-0  10166-3 0  2489
2 26932 067.0588 301.0136 0007357 287.2637 072.7667 14.29517366229674
UWE-1
1 28892U 05043C   06054.72159174  .00000139  00000-0  39141-4 0  3801
2 28892 098.1749 314.7062 0017501 161.7336 198.4490 14.59307975 17422
XI-V
1 28895U 05043F   06054.16850020  .00000185  00000-0  48806-4 0  3630
2 28895 098.1767 314.2022 0017964 163.6238 196.5565 14.59363801 17221
NCUBE2
1 28897U 05043H   06053.67788182  .00000137  00000-0  38585-4 0   329
2 28897 098.1757 313.7174 0017221 167.6724 192.4898 14.59516075  9424
AO-54
1 28933U 05035C   06054.84171903  .00044535  00000-0  28261-3 0   260
2 28933 051.6434 050.3417 0007299 326.7827 033.2896 15.76010347  3134
